Regional Weather Roundup
Issued by NWS

Home | Current Version | Previous Version | Graphics & Text | Print | Product List | Glossary On
Versions: 1 2 3 4 5 6 7 8 9 10 11 12 13 14 15 16 17 18 19 20 21 22 23 24 25 26 27 28 29 30 31 32 33 34 35 36 37 38 39 40 41 42 43 44 45 46 47 48 49 50
000
ASUS43 KLMK 181502
RWRKY
KENTUCKY REGIONAL WEATHER ROUNDUP
NATIONAL WEATHER SERVICE LOUISVILLE KY
1100 AM EDT FRI AUG 18 2017

NOTE "FAIR" INDICATES FEW OR NO CLOUDS BELOW 12,000 FEET
WITH NO SIGNIFICANT WEATHER AND/OR OBSTRUCTIONS TO VISIBILITY.

KYZ001>023-026-027-061>063-070>075-181600-
WESTERN AND SOUTH CENTRAL KENTUCKY

CITY           SKY/WX    TMP DP  RH WIND       PRES   REMARKS
PADUCAH        SUNNY     80  66  62 W7        30.00R
HENDERSON      SUNNY     78  68  71 W7        29.97R
OWENSBORO      SUNNY     79  69  71 W8        29.97R
HOPKINSVILLE   SUNNY     79  69  71 W10       29.99R
BOWLING GREEN  SUNNY     82  70  66 W9        29.98R
GLASGOW        PTSUNNY   80  69  68 W5        29.98S
$$

KYZ024-025-028>034-038-045-046-053-181600-
NORTH CENTRAL KENTUCKY

CITY           SKY/WX    TMP DP  RH WIND       PRES   REMARKS
LOUISVILLE/SDF MOSUNNY   81  69  67 W10       29.94R
LOUISVILLE/LOU SUNNY     80  70  71 W8        29.94R
FORT KNOX      SUNNY     80  67  64 W8        29.94S
$$

KYZ035>037-039>044-047>052-055>060-089>105-181600-
NORTHEAST KENTUCKY

CITY           SKY/WX    TMP DP  RH WIND       PRES   REMARKS
LEXINGTON      PTSUNNY   80  69  69 W8        29.95R
COVINGTON      MOSUNNY   79  71  76 W8        29.92R
FRANKFORT      MOSUNNY   80  68  66 NW7       29.94R
$$

KYZ054-064>069-076>088-106>120-181600-
SOUTHEAST KENTUCKY

CITY           SKY/WX    TMP DP  RH WIND       PRES   REMARKS
JACKSON        CLOUDY    75  73  93 CALM      29.97R
LONDON         CLOUDY    74  72  93 W8        29.98R
SOMERSET       NOT AVBL
MIDDLESBORO    PTSUNNY   79  73  81 CALM      29.99S
MONTICELLO     PTSUNNY   81  74  79 W15       30.00S
$$





USA.gov is the U.S. government's official web portal to all federal, state and local government web resources and services.